Date,TemperatureHighF,TemperatureAvgF,TemperatureLowF,DewpointHighF,DewpointAvgF,DewpointLowF,HumidityHigh,HumidityAvg,HumidityLow,PressureMaxIn,PressureMinIn,WindSpeedMaxMPH,WindSpeedAvgMPH,GustSpeedMaxMPH,PrecipitationSumIn
2013-4-1,36,30,26,36,30,26,100,100,96,0.00,40.00,30,9,71,0.00
2013-4-2,37,29,26,37,29,26,100,100,100,0.00,40.00,18,9,33,0.00
2013-4-3,49,36,29,45,32,21,100,90,54,0.00,40.00,16,6,22,0.00
2013-4-4,44,39,35,40,32,29,100,78,56,0.00,40.00,26,14,46,0.00
2013-4-5,39,32,27,38,32,27,100,98,74,0.00,40.00,34,15,50,0.00
2013-4-6,36,31,27,36,31,27,100,100,100,0.00,40.00,11,6,22,0.00
2013-4-7,36,31,26,36,29,13,100,92,38,0.00,40.00,17,8,35,0.00
2013-4-8,34,26,14,32,25,12,100,96,55,0.00,40.00,20,10,38,0.00
2013-4-9,20,10,5,20,10,5,100,100,100,0.00,40.00,23,17,41,0.00
2013-4-10,34,20,10,34,20,10,100,100,100,0.00,40.00,14,9,32,0.00
2013-4-11,40,30,26,38,29,26,100,100,80,0.00,40.00,17,6,35,0.00
2013-4-12,42,30,23,37,25,4,100,84,30,0.00,40.00,15,6,24,0.00
2013-4-13,34,28,18,32,25,8,100,88,38,0.00,40.00,24,12,38,0.00
2013-4-14,25,16,9,22,9,-9,100,78,27,0.00,40.00,20,8,33,0.00
2013-4-15,32,20,15,30,20,15,100,100,92,0.00,40.00,20,7,29,0.00
2013-4-16,24,17,11,24,17,10,100,100,100,0.00,40.00,13,7,22,0.00
2013-4-17,21,12,7,21,12,7,100,100,96,0.00,40.00,16,9,32,0.00
2013-4-18,28,16,8,14,6,-5,100,67,35,0.00,40.00,15,10,37,0.00
2013-4-19,35,26,19,35,24,13,100,96,73,0.00,40.00,16,8,25,0.00
2013-4-20,35,27,24,35,27,24,100,100,100,0.00,40.00,19,7,27,0.00
2013-4-21,37,30,25,36,28,23,100,92,73,0.00,40.00,12,6,23,0.00
2013-4-22,32,26,16,32,26,16,100,98,66,0.00,40.00,13,7,28,0.00
2013-4-23,33,21,10,18,6,-35,100,66,6,0.00,40.00,13,6,30,0.00
2013-4-24,40,29,18,13,-4,-18,53,25,8,0.00,40.00,9,5,17,0.00
2013-4-25,45,33,27,17,5,-34,56,31,4,0.00,40.00,18,9,26,0.00
2013-4-26,48,38,30,15,6,-14,41,28,10,0.00,40.00,13,6,18,0.00
2013-4-27,48,42,35,25,13,-4,65,32,16,0.00,40.00,14,7,24,0.00
2013-4-28,49,46,42,25,20,16,50,36,28,0.00,40.00,16,9,29,0.00
2013-4-29,48,42,35,36,26,14,95,54,34,0.00,40.00,13,9,28,0.00
2013-4-30,41,32,20,39,22,-3,100,70,28,0.00,40.00,17,9,30,0.00